Terug naar catalogus

DELTA 1 DEB

ActiefUNKNOWN
NORAD 10469·DEBRIS·🇺🇸 United States

Gelanceerd Jul 14, 1977 vanaf Cape Canaveral Space Force Station

Loading…

Volgende Passages (komende 24 uur)

TLE

VersSource: Space-Track

Epoch: Sep 13, 2026, 08:58 UTC

1 10469U 77065EB  26256.37403418  .00000291  00000-0  22055-3 0  9995
2 10469  29.1233 323.0108 0865185 204.2026 151.5414 12.72348383281630

Volg DELTA 1 DEB in realtime met AllMySat

Download on the App Store